Saguache, CO

8:12 PM MDT on March 22, 2017 (GMT -0600)
Saguache

Weather History for K04V - April, 2013

Change the Weather History Date:

Thursday, April 11, 2013

  Actual Average (KALS) Record (KALS)
Temperature  
Mean Temperature - -  
Max Temperature - 58 °F 73 °F (1971)
Min Temperature - 24 °F 2 °F (1951)
Moisture  
Dew Point -    
Average Humidity    
Maximum Humidity    
Minimum Humidity    
Precipitation  
Precipitation 0.00 in - - ()
Sea Level Pressure  
Sea Level Pressure 29.91 in    
Wind  
Wind Speed 11 mph (NNW)    
Max Wind Speed 22 mph    
Max Gust Speed 31 mph    
Visibility 10 miles    
Events Rain    
Averages and records for this station are not official NWS values.
T = Trace of Precipitation, MM = Missing Value Source: NWS Daily Summary

Daily Weather History Graph

Daily Weather History Graph

Search for Another Location

Airport or City:

Trip Planner

Search our weather history database for the weather conditions in past years. The results will help you decide how hot, cold, wet, or windy it might be!

Date:

Astronomy

Apr. 11, 2013 Rise Set
Actual Time 6:34 AM MDT 7:37 PM MDT
Civil Twilight 6:07 AM MDT 8:04 PM MDT
Nautical Twilight 5:35 AM MDT 8:36 PM MDT
Astronomical Twilight 5:02 AM MDT 9:10 PM MDT
Moon 7:09 AM MDT (4/11) 9:12 PM MDT (4/11)
Length of Visible Light 13h 56m
Length of Day
13h 02m
New Moon, 2% of the Moon is Illuminated
Apr 11
New Moon
Apr 18
First Quarter
Apr 25
Full
May 2
Last Quarter
May 9
New

Hourly Weather History & Observations

Time (MDT) Temp. Dew Point Humidity Pressure Visibility Wind Dir Wind Speed Gust Speed Precip Events Conditions
12:16 AM - - N/A% 29.93 in 10.0 mi NW 13.8 mph 24.2 mph N/A   Clear
12:36 AM - - N/A% 29.93 in 10.0 mi NW 17.3 mph - N/A   Clear
12:56 AM - - N/A% 29.93 in 10.0 mi NW 11.5 mph 20.7 mph N/A   Clear
1:16 AM - - N/A% 29.93 in 10.0 mi NNW 16.1 mph 23.0 mph N/A   Clear
1:36 AM - - N/A% 29.93 in 10.0 mi North 11.5 mph 16.1 mph N/A   Clear
1:56 AM - - N/A% 29.92 in 10.0 mi North 10.4 mph - N/A   Clear
2:16 AM - - N/A% 29.92 in 10.0 mi North 15.0 mph - N/A   Clear
2:36 AM - - N/A% 29.90 in 10.0 mi NNE 11.5 mph - N/A   Clear
2:56 AM - - N/A% 29.92 in 10.0 mi NNE 10.4 mph - N/A   Clear
3:16 AM - - N/A% 29.90 in 10.0 mi North 8.1 mph - N/A   Clear
3:35 AM - - N/A% 29.90 in 10.0 mi North 9.2 mph - N/A   Clear
3:56 AM - - N/A% 29.90 in 10.0 mi North 11.5 mph - N/A   Clear
4:15 AM - - N/A% 29.90 in 10.0 mi North 8.1 mph 23.0 mph N/A   Clear
4:36 AM - - N/A% 29.90 in 10.0 mi NNW 8.1 mph - N/A   Clear
4:56 AM - - N/A% 29.90 in 10.0 mi NNE 11.5 mph 17.3 mph N/A   Clear
5:16 AM - - N/A% 29.90 in 10.0 mi NNE 8.1 mph - N/A   Clear
5:36 AM - - N/A% 29.90 in 10.0 mi North 6.9 mph - N/A   Clear
5:56 AM - - N/A% 29.90 in 10.0 mi North 6.9 mph - N/A   Clear
6:16 AM - - N/A% 29.89 in 10.0 mi NNW 10.4 mph - N/A   Scattered Clouds
6:36 AM - - N/A% 29.90 in 10.0 mi WNW 12.7 mph - N/A   Clear
6:56 AM - - N/A% 29.90 in 10.0 mi WNW 9.2 mph - N/A   Clear
7:16 AM - - N/A% 29.92 in 10.0 mi NW 8.1 mph - N/A   Clear
7:36 AM - - N/A% 29.92 in 10.0 mi NW 11.5 mph - N/A   Scattered Clouds
7:56 AM - - N/A% 29.92 in 10.0 mi NNW 10.4 mph - N/A   Overcast
8:16 AM - - N/A% 29.92 in 10.0 mi NNW 6.9 mph - N/A   Overcast
8:36 AM - - N/A% 29.92 in 10.0 mi NNW 5.8 mph - N/A   Overcast
8:56 AM - - N/A% 29.93 in 10.0 mi West 6.9 mph - N/A   Overcast
9:16 AM - - N/A% 29.93 in 10.0 mi NW 5.8 mph - N/A   Overcast
9:36 AM - - N/A% 29.93 in 10.0 mi WNW 5.8 mph - N/A   Overcast
9:56 AM - - N/A% 29.93 in 10.0 mi West 4.6 mph - N/A   Overcast
10:16 AM - - N/A% 29.93 in 10.0 mi South 3.5 mph - N/A   Overcast
10:36 AM - - N/A% 29.94 in 10.0 mi Calm Calm - N/A   Overcast
11:16 AM - - N/A% 29.94 in 10.0 mi ESE 5.8 mph - N/A   Overcast
11:36 AM - - N/A% 29.93 in 10.0 mi SSE 3.5 mph - N/A   Overcast
12:16 PM - - N/A% 29.92 in 10.0 mi South 6.9 mph - N/A   Overcast
12:36 PM - - N/A% 29.92 in 10.0 mi WSW 5.8 mph - N/A   Overcast
12:56 PM - - N/A% 29.92 in 10.0 mi SSW 6.9 mph - N/A   Overcast
1:16 PM - - N/A% 29.92 in 10.0 mi West 5.8 mph - N/A   Overcast
1:36 PM - - N/A% 29.91 in 10.0 mi Calm Calm - N/A   Scattered Clouds
1:56 PM - - N/A% 29.90 in 10.0 mi ENE 4.6 mph - N/A   Clear
2:16 PM - - N/A% 29.88 in 10.0 mi SSW 6.9 mph - N/A   Scattered Clouds
2:36 PM - - N/A% 29.88 in 10.0 mi West 6.9 mph - N/A   Mostly Cloudy
3:15 PM - - N/A% 29.88 in 10.0 mi NNW 12.7 mph 20.7 mph N/A   Mostly Cloudy
3:36 PM - - N/A% 29.88 in 5.0 mi NW 10.4 mph 28.8 mph N/A Rain Light Rain
3:56 PM - - N/A% 29.88 in 10.0 mi North 21.9 mph 27.6 mph N/A   Mostly Cloudy
4:16 PM - - N/A% 29.87 in 10.0 mi NW 17.3 mph 24.2 mph N/A   Scattered Clouds
4:36 PM - - N/A% 29.86 in 10.0 mi NW 20.7 mph 26.5 mph N/A   Clear
4:56 PM - - N/A% 29.86 in 10.0 mi NNW 21.9 mph 31.1 mph N/A   Scattered Clouds
5:16 PM - - N/A% 29.87 in 10.0 mi NNW 16.1 mph 28.8 mph N/A   Clear
5:35 PM - - N/A% 29.88 in 10.0 mi NW 19.6 mph 28.8 mph N/A   Scattered Clouds
5:56 PM - - N/A% 29.88 in 10.0 mi North 13.8 mph 27.6 mph N/A   Overcast
6:16 PM - - N/A% 29.88 in 10.0 mi North 5.8 mph - N/A   Mostly Cloudy
6:36 PM - - N/A% 29.88 in 10.0 mi NW 18.4 mph 26.5 mph N/A   Scattered Clouds
6:55 PM - - N/A% 29.88 in 10.0 mi NW 18.4 mph - N/A   Clear
7:16 PM - - N/A% 29.88 in 10.0 mi NNW 13.8 mph - N/A   Clear
7:36 PM - - N/A% 29.89 in 10.0 mi North 15.0 mph 24.2 mph N/A   Clear
7:56 PM - - N/A% 29.90 in 10.0 mi NNW 11.5 mph 25.3 mph N/A   Clear
8:16 PM - - N/A% 29.92 in 10.0 mi North 9.2 mph - N/A   Clear
8:36 PM - - N/A% 29.92 in 10.0 mi NNE 8.1 mph - N/A   Clear
8:56 PM - - N/A% 29.93 in 10.0 mi NNW 5.8 mph - N/A   Clear
9:16 PM - - N/A% 29.94 in 10.0 mi NW 8.1 mph - N/A   Clear
9:35 PM - - N/A% 29.94 in 10.0 mi NNW 10.4 mph - N/A   Clear
9:56 PM - - N/A% 29.94 in 10.0 mi NNW 6.9 mph - N/A   Clear
10:16 PM - - N/A% 29.95 in 10.0 mi NNW 9.2 mph - N/A   Clear
10:35 PM - - N/A% 29.95 in 10.0 mi NNW 10.4 mph - N/A   Clear
10:55 PM - - N/A% 29.95 in 10.0 mi NNW 11.5 mph - N/A   Clear
11:16 PM - - N/A% 29.95 in 10.0 mi NNW 9.2 mph - N/A   Clear
11:36 PM - - N/A% 29.95 in 10.0 mi NNW 11.5 mph - N/A   Clear
11:56 PM - - N/A% 29.95 in 10.0 mi NNW 9.2 mph - N/A   Clear